Погода Идринское

Погода Идринское : погода сейчас, прогноз погоды и архив. Всё, что Вы хотите узнать о погоде Идринское!

Хотите узнать прогноз погоды Идринское? Тогда Вам сюда: Погода Идринское

Поиск расширенной информации на нашем сайте:

Другие новости

Новости СМИ2

Главная страница сайта

Новости сайта

03.07.2017

Напоминаем, что на нашем специализированном сайте Метеоцентр.Азия вы можете получить высокодетализированные автоматические прогнозы погоды по пунктам России, СНГ и мира в авиационном формате (включающие направление и скорость ветра, видимость, явления погоды, количество и форму облачности, нижнюю и верхнюю границу облачности).


Погода Идринское - сегодня

Время (UTC), дата Ветер
(°,м/с) 
Видим.   Явления Облачность Т
(°С)
Тd
(°С)
f(%) Тe
(°С)
Pmin
(гПа)
dP
(гПа)
Po
(мм)
O2
(г/м3)
Тmin Tmax R s Состояние
почвы
21 21.11.17 250 (З) 20000 м    10/10 2000 м 
[Ac As]
-3.6 -7.6 74 -3  1031.7  -2.3  747  306           
00 22.11.17 220 (ЮЗ) 20000 м  слаб. снег  10/10 2000 м 
[Ac As]
-3.7 -4.3 96 -7  1028.8  -2.8  745  305  -4    0.3  12  равномерный
сухой снег
100% 
03 22.11.17 230 (ЮЗ) 4{10}  10 км  слаб. снег  10/10 2000 м 
[Ns]
-3.4 -3.8 97 -6  1026.8  -1.9  743  304           
06 22.11.17 270 (З) 20000 м  слаб. снег  10/4 1000 м средняя 
[Sc|Ac As]
-2.1 -2.9 94 -5  1028.1  1.5  744  303           
09 22.11.17 270 (З) 4{11}  20000 м  {снег}  9/4 1000 м средняя, верхняя 
[Sc|Ac trans|Ci fib]
-1.7 -4.6 81 -4  1031.1  2.9  746  303           
12 22.11.17 260 (З) 20000 м  {снег}  9/4 1000 м средняя, верхняя 
[Sc|Ac trans|Ci fib]
-1.8 -5.1 78 -4  1033.5  2.3  748  304    -1.5     
15 22.11.17 270 (З) 20000 м    10/10 1000 м 
[Sc]
-2 -5.7 76 -1  1034.1  0.5  749  304           
18 22.11.17 270 (З) 20000 м    10/10 1000 м 
[Sc]
-2.4 -6.5 73 -2  1033.3  -0.8  748  305           
21 22.11.17 тихо ()   20000 м  слаб. ливневой снег  10/10 1000 м кучево-дожд. 
[Cb cap]
-4.1 -5.3 91 -4  1032.8  -0.7  747  306           
00 23.11.17 110 (В) 20000 м  слаб. ливневой снег  10/10 1000 м кучево-дожд. 
[Cb cap]
-4.8 -5.1 98 -4  1032.1  -0.7  747  307  -4.8    0.8  13  равномерный
сухой снег
100% 
03 23.11.17 120 (ЮВ) 20000 м  слаб. ливневой снег  9/9 1000 м кучево-дожд. 
[Cb cap]
-4.8 -5.1 98 -4  1031.6  -0.5  746  307  -4.9         
06 23.11.17 120 (ЮВ) 20000 м  {ливн. осадки}  10/10 1000 м кучево-дожд. 
[Cb cap]
-2.6 -3.9 91 -2  1030.8  -0.5  746  304           
09 23.11.17 тихо ()   20000 м    10/10 2000 м 
[Ns]
-3.1 -4.6 89 -3  1029.8  -1.1  745  304           
12 23.11.17 тихо ()   20000 м    10/10 2000 м 
[Ns]
-6.2 -6.6 97 -6  1029.6  -0.6  745  308    -1.7  0.7     
15 23.11.17 130 (ЮВ) 20000 м    10/10 2000 м 
[Ns]
-6.2 -6.5 98 -6  1028.1  -1.4  744  307           
18 23.11.17 тихо ()   20000 м    10/10 2000 м 
[Ns]
-5.7 -6.1 97 -6  1027.6  -0.5  743  307           
21 23.11.17 310 (СЗ) 20000 м    10/10 2000 м 
[Ns]
-5.6 -5.9 98 -5  1027.2  -0.3  743  306           
00 24.11.17 тихо ()   20000 м    10/10 2000 м 
[Ns]
-6.4 -6.8 97 -6  1027  -0.3  743  307  -6.5      13  равномерный
сухой снег
100% 
03 24.11.17 310 (СЗ) 20000 м    10/10 2000 м 
[Ns]
-5.8 -6.2 97 -5  1027.2  0.3  743  307  -6.9         
06 24.11.17 тихо ()   20000 м    10/10 2000 м 
[Ac As]
-4 -5.8 87 -4  1027.3  0.3  743  305           
09 24.11.17 080 (В) 20000 м  слаб. снег  10/10 2000 м 
[Ac As]
-3.5 -4.1 96 -3  1027.7  0.5  744  304           
12 24.11.17 тихо ()   20000 м  {снег}  10/10 2000 м 
[Ac As]
-3.1 -3.6 96 -3  1027.1  -0.5  743  303    -2.8  0.2     
15 24.11.17 тихо ()   20000 м    8/8 2000 м средняя 
[Ac trans]
-4.7 -5.1 97 -5  1027  -0.3  743  305           
18 24.11.17 140 (ЮВ) 20000 м    8/8 2000 м средняя 
[Ac trans]
-8.8 -9.2 97 -9  1027.6  743  310           
21 24.11.17 тихо ()   20000 м    10/10 2000 м 
[Ac As]
-6.2 -6.6 97 -6  1027.1  -0.2  743  307           
Время (UTC), дата Ветер
(°,м/с) 
Видим.   Явления Облачность Т
(°С)
Тd
(°С)
f(%) Тe
(°С)
Pmin
(гПа)
dP
(гПа)
Po
(мм)
O2
(г/м3)
Тmin Tmax R s Состояние
почвы

Для получения пояснительной информации подведите курсор к названию столбца.

ПОГОДА Идринское - архив

Всё, что Вы хотите узнать о погоде Идринское - удобно и подробно!

Выберите нужную дату (начиная с 1 января 2015* года) и нажмите кнопку "Найти".
Будут отображены архивные сводки погоды по пункту Идринское, начиная с указанной даты.


Отображать данные в формате CSV (для использования в таблицах Excel)


Внимание! Наш архив погоды предназначен исключительно для личного некоммерческого использования в познавательных целях. Если Вам необходимы официальные справки о состоянии погоды (для производственных, юридических, коммерческих и т.п. целей), обращайтесь в органы Росгидромета.

*Примечание: данная дата относится к архиву по метеостанциям СССР (Россия, СНГ, Балтия).
Архив по метеостанциям Зарубежной Европы и Азии (кроме Китая) хранится 10 дней, по другим регионам земного шара (Китай, Африка, Америка, Австралия, Океания) - 1 день.

Идринское - район местоположения метеостанции


Название, широта, долгота, высота метеостанции:
Идринское 54.4°ш. 92.1°д. 282 м над ур. моря [Российская Федерация]

Дополнительная информация

В oтличие oт бoльшинства пoгoдных сайтoв мы публикуем пoдрoбную метеoинфoрмацию в детальнoм прoфессиoнальнoм фoрмате.

Характеристики температуры и влажнoсти вoздуха измеряются на высoте 2 м в тени вдали oт зданий и деревьев.
Скoрoсть ветра измеряется на высoте 10 м (на урoвне рoста челoвека скoрoсть ветра ниже в 1.5-2 раза). Если метеoстанция нахoдится в гoрoде или в лесу, тo скoрoсть ветра занижена на 2-4 м/с пo сравнению с oткрытым местoм. Скoрoсть ветра над акватoриями крупных рек и oзёр, а также на вершинах хoлмoв на 2-5 м/с выше, чем в oбычных услoвиях.
Атмoсфернoе давление в разных тoчках местнoсти мoжет значительнo oтличаться oт давления на метеoстанции, в зависимoсти oт услoвий рельефа (при пoдъёме на 10 м давление пoнижается примернo на 1 мм рт.ст.).